GW4987 Weather Reports


time (UTC)temp
C
wind
direction
speed
KPH
gust
KPH
rain 1hr
cm
rain 24hr
cm
rain mn
cm
humidity
%
barometer
mb
20260503002555 20 209 8.0 11.3 0.00 0.00 0.00 25 1017.7
20260503002014 21 156 8.0 11.3 0.00 0.00 0.00 25 1017.8
20260503001555 20 126 8.0 11.3 0.00 0.00 0.00 26 1017.6
20260503001056 20 206 8.0 14.5 0.00 0.00 0.00 25 1017.8
20260503000514 20 205 11.3 12.9 0.00 0.00 0.00 25 1017.7
20260503000014 20 128 9.7 9.7 0.00 0.00 0.00 25 1017.7
20260502235556 20 129 17.7 22.5 0.00 0.00 0.00 25 1017.7
20260502235014 20 185 8.0 16.1 0.00 0.00 0.00 25 1017.7
20260502234555 20 227 6.4 11.3 0.00 0.00 0.00 25 1017.8
20260502234056 20 93 11.3 12.9 0.00 0.00 0.00 24 1018.0
20260502233555 20 154 6.4 9.7 0.00 0.00 0.00 24 1017.6
20260502233014 20 137 6.4 12.9 0.00 0.00 0.00 25 1017.7
20260502232555 20 91 8.0 16.1 0.00 0.00 0.00 24 1017.6
20260502231014 21 134 4.8 6.4 0.00 0.00 0.00 24 1017.7
20260502230555 21 129 8.0 8.0 0.00 0.00 0.00 23 1017.7
20260502230056 21 175 4.8 8.0 0.00 0.00 0.00 23 1017.8
20260502224013 21 125 8.0 11.3 0.00 0.00 0.00 23 1017.8
20260502223555 22 120 6.4 9.7 0.00 0.00 0.00 22 1017.9
20260502223056 21 176 3.2 20.9 0.00 0.00 0.00 22 1018.0
20260502222513 22 92 11.3 11.3 0.00 0.00 0.00 21 1018.0
20260502222013 22 101 9.7 16.1 0.00 0.00 0.00 22 1018.0
20260502221556 22 123 8.0 12.9 0.00 0.00 0.00 22 1018.0
20260502215555 21 80 9.7 12.9 0.00 0.00 0.00 22 1018.3
20260502215013 21 63 17.7 17.7 0.00 0.00 0.00 22 1018.2
20260502214555 21 91 6.4 16.1 0.00 0.00 0.00 22 1018.3
20260502214055 21 67 8.0 16.1 0.00 0.00 0.00 22 1018.4
20260502213556 20 115 12.9 25.7 0.00 0.00 0.00 23 1018.5
20260502213013 22 111 6.4 17.7 0.00 0.00 0.00 22 1018.3
20260502212555 22 260 3.2 19.3 0.00 0.00 0.00 22 1018.6
20260502212056 21 31 16.1 24.1 0.00 0.00 0.00 22 1018.7
20260502211555 21 73 19.3 19.3 0.00 0.00 0.00 22 1018.7
20260502211055 21 80 22.5 32.2 0.00 0.00 0.00 22 1018.7
20260502210556 22 93 17.7 20.9 0.00 0.00 0.00 22 1018.8
20260502210013 21 130 4.8 14.5 0.00 0.00 0.00 22 1019.0
20260502205555 20 168 4.8 16.1 0.00 0.00 0.00 23 1018.9
20260502205055 21 71 9.7 19.3 0.00 0.00 0.00 22 1019.2
20260502204514 20 77 11.3 22.5 0.00 0.00 0.00 23 1019.2
20260502204014 20 95 12.9 20.9 0.00 0.00 0.00 23 1019.0
20260502203556 21 88 19.3 27.4 0.00 0.00 0.00 22 1019.3
20260502201555 21 207 11.3 17.7 0.00 0.00 0.00 21 1019.4
20260502201013 21 36 4.8 14.5 0.00 0.00 0.00 22 1019.6
20260502200555 21 68 14.5 20.9 0.00 0.00 0.00 21 1019.5
20260502200056 21 62 8.0 19.3 0.00 0.00 0.00 21 1019.5
20260502195556 21 81 8.0 17.7 0.00 0.00 0.00 22 1019.5
20260502195013 22 44 14.5 17.7 0.00 0.00 0.00 22 1019.6
20260502194555 20 30 11.3 17.7 0.00 0.00 0.00 22 1019.6
20260502194055 21 128 14.5 22.5 0.00 0.00 0.00 22 1019.5
20260502193555 21 117 6.4 16.1 0.00 0.00 0.00 22 1019.6
20260502193055 21 7 12.9 20.9 0.00 0.00 0.00 22 1019.6
20260502192555 21 246 6.4 8.0 0.00 0.00 0.00 21 1019.5
20260502185056 20 15 14.5 17.7 0.00 0.00 0.00 23 1020.1
20260502184555 19 33 14.5 25.7 0.00 0.00 0.00 23 1020.1
20260502184056 21 0 9.7 22.5 0.00 0.00 0.00 22 1020.2
20260502183555 20 42 11.3 17.7 0.00 0.00 0.00 22 1020.2
20260502183013 20 68 3.2 12.9 0.00 0.00 0.00 23 1020.3
20260502182556 20 89 8.0 24.1 0.00 0.00 0.00 23 1020.2
20260502182055 20 62 17.7 20.9 0.00 0.00 0.00 23 1020.2
20260502181514 20 13 9.7 20.9 0.00 0.00 0.00 24 1020.5
20260502164055 18 71 16.1 29.0 0.00 0.00 0.00 27 1020.6
20260502163555 18 102 11.3 20.9 0.00 0.00 0.00 27 1020.6
20260502163014 17 58 16.1 25.7 0.00 0.00 0.00 28 1020.7
20260502162555 18 99 11.3 14.5 0.00 0.00 0.00 28 1020.4
20260502162055 17 96 11.3 25.7 0.00 0.00 0.00 28 1020.5
20260502152056 16 34 11.3 19.3 0.00 0.00 0.00 28 1020.2
20260502151556 16 105 11.3 14.5 0.00 0.00 0.00 28 1020.2
20260502151014 16 38 9.7 12.9 0.00 0.00 0.00 27 1020.2
20260502150556 16 8 4.8 12.9 0.00 0.00 0.00 28 1020.2
20260502130556 6 273 4.8 8.0 0.00 0.00 0.00 45 1019.3
20260502123555 5 264 6.4 8.0 0.00 0.00 0.00 48 1019.0
20260502123055 5 262 6.4 8.0 0.00 0.00 0.00 48 1019.2
20260502122514 5 256 6.4 6.4 0.00 0.00 0.00 48 1019.0
20260502122014 5 263 6.4 8.0 0.00 0.00 0.00 46 1018.9
20260502121556 5 264 6.4 8.0 0.00 0.00 0.00 46 1019.0
20260502121014 5 267 6.4 8.0 0.00 0.00 0.00 48 1018.8
20260502120555 5 263 6.4 6.4 0.00 0.00 0.00 48 1018.9
20260502115556 5 273 4.8 4.8 0.00 0.00 0.00 47 1018.8
20260502115014 5 253 6.4 8.0 0.00 0.00 0.00 47 1018.8
20260502114555 5 264 6.4 8.0 0.00 0.00 0.00 49 1018.8
20260502114055 5 263 8.0 8.0 0.00 0.00 0.00 49 1018.7
20260502113556 5 267 8.0 9.7 0.00 0.00 0.00 49 1018.9
20260502113014 5 261 8.0 8.0 0.00 0.00 0.00 48 1018.8
20260502112555 6 264 8.0 9.7 0.00 0.00 0.00 47 1018.9
20260502112014 5 277 8.0 8.0 0.00 0.00 0.00 49 1018.9
20260502111556 5 289 6.4 8.0 0.00 0.00 0.00 48 1018.7
20260502111056 5 266 3.2 8.0 0.00 0.00 0.00 48 1019.0
20260502110556 5 268 6.4 9.7 0.00 0.00 0.00 48 1018.8
20260502110014 5 279 8.0 9.7 0.00 0.00 0.00 48 1018.8
20260502105555 5 268 8.0 8.0 0.00 0.00 0.00 48 1019.0
20260502105056 5 258 8.0 8.0 0.00 0.00 0.00 48 1018.9
20260502104514 5 268 8.0 8.0 0.00 0.00 0.00 48 1018.8
20260502104014 5 272 6.4 8.0 0.00 0.00 0.00 47 1019.0
20260502103556 6 262 6.4 6.4 0.00 0.00 0.00 46 1018.8
20260502101555 6 265 6.4 8.0 0.00 0.00 0.00 46 1018.9
20260502101013 5 261 4.8 6.4 0.00 0.00 0.00 47 1019.0
20260502100556 6 266 4.8 6.4 0.00 0.00 0.00 46 1018.8
20260502071015 8 267 4.8 4.8 0.00 0.00 0.00 36 1019.3
20260502070517 8 266 3.2 4.8 0.00 0.00 0.00 35 1019.2
20260502070013 8 263 4.8 4.8 0.00 0.00 0.00 36 1019.2
20260502065555 7 267 6.4 8.0 0.00 0.00 0.00 37 1019.2
20260502065015 8 264 4.8 8.0 0.00 0.00 0.00 37 1019.0
20260502064555 8 248 4.8 6.4 0.00 0.00 0.00 35 1019.2
20260502064056 8 277 3.2 8.0 0.00 0.00 0.00 37 1019.2
20260502063556 8 259 4.8 4.8 0.00 0.00 0.00 34 1019.0
20260502061055 8 256 4.8 4.8 0.00 0.00 0.00 34 1018.9
20260502060555 9 262 4.8 8.0 0.00 0.00 0.00 33 1018.9
20260502060014 9 252 4.8 4.8 0.00 0.00 0.00 34 1018.9
20260502055555 10 257 4.8 4.8 0.00 0.00 0.00 32 1019.0
20260502055056 9 294 4.8 6.4 0.00 0.00 0.00 33 1018.8
20260502054514 9 281 3.2 6.4 0.00 0.00 0.00 34 1018.9
20260502054014 10 219 3.2 4.8 0.00 0.00 0.00 32 1018.7
20260502053556 10 263 3.2 4.8 0.00 0.00 0.00 32 1018.9
20260502053015 10 261 0.0 4.8 0.00 0.00 0.00 31 1018.8
20260502052555 10 315 0.0 4.8 0.00 0.00 0.00 31 1018.8
20260502052055 10 243 3.2 4.8 0.00 0.00 0.00 31 1018.7
20260502051555 11 161 0.0 6.4 0.00 0.00 0.00 30 1018.8
20260502051014 11 100 3.2 3.2 0.00 0.00 0.00 30 1018.8
20260502050555 11 241 0.0 6.4 0.00 0.00 0.00 29 1018.6
20260502050055 11 266 6.4 9.7 0.00 0.00 0.00 29 1018.5
20260502044555 12 268 6.4 6.4 0.00 0.00 0.00 27 1018.3
20260502044055 13 259 6.4 8.0 0.00 0.00 0.00 27 1018.3
20260502043556 13 260 6.4 9.7 0.00 0.00 0.00 27 1018.3
20260502043055 13 282 3.2 6.4 0.00 0.00 0.00 27 1018.4
20260502042555 13 279 0.0 4.8 0.00 0.00 0.00 26 1018.2
20260502040514 15 299 8.0 9.7 0.00 0.00 0.00 24 1018.0
20260502040015 15 304 12.9 14.5 0.00 0.00 0.00 24 1017.9
20260502035556 15 338 4.8 11.3 0.00 0.00 0.00 23 1018.0
20260502035014 15 292 6.4 14.5 0.00 0.00 0.00 23 1018.0
20260502034555 15 294 8.0 14.5 0.00 0.00 0.00 23 1017.9
20260502034056 15 284 6.4 11.3 0.00 0.00 0.00 23 1017.8
20260502033555 15 3 6.4 14.5 0.00 0.00 0.00 23 1017.7
20260502033014 16 313 3.2 14.5 0.00 0.00 0.00 23 1017.7
20260502032555 15 335 8.0 17.7 0.00 0.00 0.00 23 1017.5
20260502032055 16 354 8.0 19.3 0.00 0.00 0.00 23 1017.6
20260502031515 16 74 4.8 16.1 0.00 0.00 0.00 23 1017.5
20260502031014 16 6 9.7 17.7 0.00 0.00 0.00 23 1017.4
20260502030555 16 0 11.3 14.5 0.00 0.00 0.00 23 1017.2
20260502030015 16 138 4.8 11.3 0.00 0.00 0.00 23 1017.3
20260502025555 16 350 11.3 14.5 0.00 0.00 0.00 23 1017.2
20260502025055 16 313 4.8 20.9 0.00 0.00 0.00 22 1017.3
20260502024556 16 296 19.3 22.5 0.00 0.00 0.00 22 1017.0
20260502024015 17 3 6.4 17.7 0.00 0.00 0.00 22 1017.0
20260502023555 17 3 16.1 29.0 0.00 0.00 0.00 20 1016.8
20260502023056 17 281 14.5 16.1 0.00 0.00 0.00 19 1016.5
20260502021014 18 283 11.3 29.0 0.00 0.00 0.00 19 1016.2
20260502020555 18 320 16.1 20.9 0.00 0.00 0.00 19 1016.1
20260502020055 18 329 4.8 8.0 0.00 0.00 0.00 19 1016.1
20260502015555 20 280 3.2 6.4 0.00 0.00 0.00 19 1016.2
20260502015015 20 303 4.8 6.4 0.00 0.00 0.00 18 1016.0
20260502014555 20 285 3.2 6.4 0.00 0.00 0.00 19 1015.9
20260502014056 20 325 4.8 6.4 0.00 0.00 0.00 18 1016.1
20260502013556 20 325 4.8 4.8 0.00 0.00 0.00 18 1015.9
20260502013014 20 9 3.2 8.0 0.00 0.00 0.00 18 1015.9
20260502012555 19 321 3.2 6.4 0.00 0.00 0.00 18 1015.9
20260502012055 20 344 6.4 8.0 0.00 0.00 0.00 18 1015.9
20260502011555 18 353 8.0 8.0 0.00 0.00 0.00 19 1015.9
20260502011055 18 309 6.4 11.3 0.00 0.00 0.00 19 1015.9
20260502010555 18 331 6.4 14.5 0.00 0.00 0.00 19 1015.7
20260502010014 19 300 3.2 9.7 0.00 0.00 0.00 18 1015.8
20260502005555 19 13 0.0 14.5 0.00 0.00 0.00 19 1015.9
20260502005056 19 0 9.7 11.3 0.00 0.00 0.00 18 1015.9
20260502004514 19 338 9.7 11.3 0.00 0.00 0.00 18 1015.7
20260502004015 20 269 8.0 11.3 0.00 0.00 0.00 18 1015.8
20260502003555 20 12 4.8 14.5 0.00 0.00 0.00 18 1015.7
20260502003014 20 353 3.2 9.7 0.00 0.00 0.00 18 1015.7